Tracking 28348 objects as of 8-Dec-2023
HD Live streaming from Space Station
objects crossing your sky now

STARLINK-30457

Track STARLINK-30457 now!
10-day predictions
STARLINK-30457 is classified as:


NORAD ID: 57900
Int'l Code: 2023-146K
Perigee: 564.9 km
Apogee: 567.4 km
Inclination: 43.0 °
Period: 95.8 minutes
Semi major axis: 6937 km
RCS: Unknown
Launch date: September 20, 2023
Source: United States (US)
Launch site: AIR FORCE EASTERN TEST RANGE (AFETR)
Your satellite tracking list
Your tracking list is empty




NASA's NSSDC Master Catalog

Two Line Element Set (TLE):
1 57900U 23146K   23341.53701899  .00016626  00000-0  12424-2 0  9998
2 57900  42.9999 106.0469 0001800 251.0325 109.0322 15.02551852 12181
Source of the keplerian elements: AFSPC